Location: Cortada de Papelón
(10.0378°N, 66.9528°W)
Time: 10:51:58
(UTC+00:00)

Delta 128 - Pass Details

Date: 13 June 2024
Orbit: 608 x 1210 km, 28.0° (Epoch: 19 July)

Event Time Altitude Azimuth Distance (km) Brightness Sun altitude
Rises 23:44:16 0° 233° (SW) 3,158 7.6 -13.1°
Reaches altitude 10° 23:46:35 10° 229° (SW) 2,314 6.8 -13.6°
Maximum altitude 23:52:02 61° 149° (SSE) 983 4.3 -14.8°
Drops below altitude 10° 23:58:31 10° 70° (ENE) 2,741 6.5 -16.2°
Enters shadow 23:58:41 - 70° (ENE) 2,795 6.5 -16.2°
